Date,TemperatureHighF,TemperatureAvgF,TemperatureLowF,DewpointHighF,DewpointAvgF,DewpointLowF,HumidityHigh,HumidityAvg,HumidityLow,PressureMaxIn,PressureMinIn,WindSpeedMaxMPH,WindSpeedAvgMPH,GustSpeedMaxMPH,PrecipitationSumIn
2013-1-1,40.9,37.7,33.6,30.0,28.2,24.1,77,68,59,29.95,29.84,9,2,9,0.02
2013-1-2,33.7,29.2,23.5,26.0,17.7,13.5,73,62,47,30.16,29.91,12,2,12,0.00
2013-1-3,37.6,27.8,17.4,19.5,17.1,13.5,88,65,46,30.18,30.07,9,2,9,0.00
2013-1-4,40.4,33.0,27.1,24.3,21.5,18.6,75,63,49,30.12,30.02,14,4,14,0.00
2013-1-5,41.6,34.4,29.4,25.6,22.8,20.3,73,63,50,30.29,30.05,14,2,14,0.00
2013-1-6,49.5,38.9,26.1,33.4,28.3,24.9,97,68,43,30.13,29.95,12,2,12,0.00
2013-1-7,43.7,36.7,24.2,29.9,26.7,21.6,92,68,51,30.35,30.06,10,2,10,0.00
2013-1-8,53.4,35.6,22.6,34.1,27.6,20.6,95,75,41,30.34,30.28,12,1,12,0.00
2013-1-9,29.5,27.5,25.8,27.5,25.7,24.3,95,93,90,30.31,30.28,1,0,1,0.00
2013-1-11,40.6,40.3,39.7,40.1,39.6,38.9,98,98,97,30.07,30.02,2,0,2,0.00
2013-1-12,58.4,46.3,39.7,50.5,43.7,39.2,99,91,73,30.10,30.02,5,0,5,0.01
2013-1-13,50.2,45.7,41.8,49.7,45.3,41.3,99,99,97,30.06,29.89,5,1,5,0.02
2013-1-14,57.3,50.7,37.7,57.3,46.2,32.1,100,85,61,30.23,29.86,9,2,9,0.19
2013-1-15,38.4,36.9,32.3,36.6,35.1,31.3,97,93,85,30.27,30.08,8,1,8,0.49
2013-1-16,32.3,32.1,32.0,31.7,31.4,31.1,98,97,96,30.09,30.04,4,1,4,0.45
2013-1-17,41.6,38.4,35.0,31.3,29.4,26.3,82,70,57,30.06,29.92,4,0,11,0.00
2013-1-18,35.5,30.9,25.3,28.7,16.9,8.9,77,57,36,30.41,29.97,15,3,15,0.00
2013-1-19,54.4,40.1,26.5,29.3,25.5,16.2,78,58,35,30.33,29.86,15,6,15,0.00
2013-1-20,55.6,42.8,31.0,32.7,23.1,11.2,67,47,22,30.01,29.73,21,6,21,0.00
2013-1-21,39.2,29.7,23.3,24.6,17.5,10.5,70,60,50,30.02,29.75,13,2,13,0.00
2013-1-22,25.7,17.1,10.8,10.9,-0.6,-4.7,58,46,33,30.22,29.86,18,4,18,0.00
2013-1-23,23.4,16.4,8.9,8.1,0.5,-1.7,68,50,35,30.28,30.08,14,2,14,0.00
2013-1-24,25.1,18.0,12.9,12.4,7.1,0.2,88,64,36,30.44,30.04,15,3,15,0.00
2013-1-25,20.5,16.2,12.4,15.4,7.6,0.1,93,70,47,30.44,30.00,8,1,8,0.00
2013-1-26,31.2,23.0,16.1,19.8,17.4,14.2,93,80,60,30.36,30.02,8,1,8,0.05
2013-1-27,36.1,25.6,15.0,21.1,17.7,12.4,95,73,50,30.53,30.36,9,1,9,0.02
2013-1-28,40.7,32.7,26.8,39.4,30.3,20.0,98,91,75,30.43,29.98,10,2,10,0.05
2013-1-29,66.0,51.3,38.3,53.4,46.3,37.3,99,84,63,30.06,29.90,8,1,8,0.00
2013-1-30,68.8,56.7,46.7,61.5,54.5,45.8,99,93,76,29.90,29.16,22,5,22,2.90
2013-1-31,56.3,39.8,26.5,56.0,27.2,11.2,99,62,40,29.81,29.04,25,8,25,0.51
2013-2-1,28.4,23.4,15.8,23.6,10.6,3.6,92,58,44,30.29,29.74,17,5,17,0.00
2013-2-2,26.0,20.0,12.6,23.5,12.3,4.5,94,73,48,30.30,29.95,12,2,12,0.00
2013-2-3,32.1,26.6,17.8,28.1,23.3,16.5,96,88,65,29.95,29.76,16,2,16,0.02
2013-2-4,34.4,27.2,19.2,19.6,15.6,10.6,75,62,48,30.02,29.83,13,3,13,0.00
2013-2-5,36.5,31.5,27.0,30.4,25.6,19.2,94,79,66,29.87,29.78,4,0,4,0.01
2013-2-6,41.4,33.9,27.4,30.1,25.6,18.8,94,72,54,30.28,29.86,13,2,13,0.00
2013-2-7,35.1,30.3,23.1,27.6,21.9,17.6,88,71,52,30.38,30.15,9,2,9,0.00
2013-2-8,38.1,34.2,30.6,36.8,30.8,21.5,97,88,69,30.15,29.67,16,3,16,0.02
2013-2-9,37.9,29.7,24.9,21.9,17.0,14.2,72,59,42,30.32,29.83,20,6,20,0.00
2013-2-10,44.1,31.4,17.5,25.3,16.1,12.6,85,56,29,30.41,30.17,10,2,10,0.00
2013-2-11,50.8,42.4,33.4,48.6,39.6,25.6,98,91,53,30.17,29.61,12,4,12,0.31
2013-2-12,52.2,43.6,31.0,34.0,29.1,26.1,82,57,41,29.92,29.73,16,3,16,0.00
2013-2-13,31.2,28.8,27.0,26.3,25.1,24.0,90,86,81,29.88,29.82,1,0,1,0.00
2013-2-14,47.3,36.6,29.1,31.8,29.3,27.3,97,76,51,29.94,29.80,1,0,6,0.27
2013-2-15,57.0,42.7,29.4,36.6,32.9,28.1,97,72,41,29.96,29.83,15,2,15,0.12
2013-2-16,34.4,32.1,28.8,31.7,27.7,17.5,98,84,60,29.93,29.75,8,2,8,0.13
2013-2-17,30.4,25.0,20.8,18.5,12.8,5.9,76,60,43,30.11,29.75,20,5,20,0.00
2013-2-18,40.6,27.9,16.1,13.6,9.8,5.8,67,48,29,30.30,30.09,12,2,12,0.00
2013-2-19,42.8,36.1,27.9,40.3,28.2,12.5,95,74,50,30.09,29.62,20,5,20,0.21
2013-2-20,33.7,28.3,22.0,22.3,15.0,9.2,65,57,48,30.07,29.76,16,5,22,0.00
2013-2-21,36.4,27.3,19.9,18.4,14.4,11.2,70,59,45,30.26,30.03,15,4,15,0.00
2013-2-22,31.7,28.7,25.8,28.2,22.0,16.0,95,76,64,30.32,30.15,9,2,9,0.00
2013-2-23,46.3,37.0,29.5,44.4,36.1,28.2,98,97,93,30.16,29.74,5,1,5,0.02
2013-2-24,48.9,38.7,28.2,39.3,30.6,20.6,99,75,44,30.03,29.71,18,4,18,0.00
2013-2-25,45.9,35.0,25.9,27.2,22.7,18.8,83,62,44,30.16,30.02,8,1,8,0.00
2013-2-26,40.8,34.6,26.3,40.0,31.2,22.7,97,88,69,30.16,29.57,25,5,25,0.55
2013-2-27,55.4,44.8,37.7,43.4,37.7,32.8,98,78,50,29.61,29.45,15,3,15,0.07
2013-2-28,45.7,40.5,37.0,35.0,30.5,25.6,79,68,47,29.64,29.55,14,3,14,0.00
2013-3-1,42.4,38.1,30.8,32.1,28.4,23.5,80,68,54,29.79,29.62,12,2,12,0.00
2013-3-2,35.6,31.5,28.0,24.9,22.4,19.8,77,69,58,29.80,29.73,13,2,13,0.00
2013-3-3,36.9,31.3,27.6,22.4,20.4,18.8,75,64,53,29.82,29.72,15,4,15,0.00
2013-3-4,40.1,31.6,24.4,21.4,17.8,14.7,71,57,43,29.95,29.82,20,5,20,0.00
2013-3-5,46.9,36.2,25.9,30.2,20.4,14.4,75,55,28,30.00,29.76,9,2,9,0.00
2013-3-6,37.3,34.1,31.9,34.2,32.2,26.6,97,93,66,29.92,29.58,18,7,18,0.68
2013-3-7,47.4,39.4,33.5,31.6,28.4,25.3,87,66,45,30.07,29.92,14,5,15,0.11
2013-3-8,46.1,39.1,32.1,28.6,26.5,22.1,83,61,49,30.19,30.04,21,6,21,0.00
2013-3-9,61.1,44.4,32.9,29.3,24.4,21.7,67,47,26,30.27,30.17,12,2,12,0.00
2013-3-10,63.0,45.9,28.9,32.2,23.8,12.3,82,47,21,30.25,30.14,13,3,13,0.00
2013-3-11,58.2,48.6,40.6,48.4,42.8,31.0,93,81,61,30.17,29.86,14,4,14,0.00
2013-3-12,56.4,49.7,39.0,54.2,44.3,29.9,98,83,60,29.86,29.64,14,4,15,1.17
2013-3-13,47.9,38.3,28.3,31.4,25.5,19.1,88,61,35,29.97,29.81,20,4,20,0.00
2013-3-14,32.1,31.0,29.8,20.7,19.5,17.8,65,62,61,29.98,29.96,12,4,12,0.00
2013-3-15,53.8,43.8,26.5,33.4,26.7,18.0,72,53,35,29.98,29.70,6,1,16,0.00
2013-3-16,47.1,39.8,32.0,37.8,33.6,30.1,94,79,61,29.90,29.59,2,1,10,0.00
2013-3-17,39.7,35.9,32.9,30.5,26.3,21.4,89,69,50,30.20,29.90,9,2,9,0.00
2013-3-18,34.7,33.6,32.7,33.1,26.2,18.5,97,76,55,30.25,29.81,16,3,16,0.28
2013-3-19,57.6,42.3,33.6,40.2,29.5,10.7,98,68,21,29.82,29.63,20,3,20,0.01
2013-3-20,49.7,40.1,27.4,23.9,17.8,14.7,65,42,26,29.91,29.69,16,4,16,0.00
2013-3-21,36.5,31.3,25.2,27.5,15.9,8.1,89,54,36,29.81,29.67,13,3,20,0.00
2013-3-22,43.7,32.9,25.0,21.9,17.6,11.4,66,54,39,29.92,29.78,15,4,15,0.00
2013-3-23,49.6,37.1,25.3,26.8,22.1,18.3,78,56,36,29.95,29.84,13,3,13,0.00
2013-3-24,42.3,35.2,25.8,29.8,22.9,19.1,83,62,45,29.92,29.58,7,1,7,0.00
2013-3-25,37.9,33.9,30.9,34.9,31.8,29.5,96,92,83,29.62,29.44,7,1,7,0.41
2013-3-26,49.7,39.4,28.6,34.3,30.0,23.4,98,72,37,29.90,29.62,12,2,12,0.11
2013-3-27,49.2,41.0,35.0,32.5,28.6,24.8,76,62,45,30.02,29.90,20,4,20,0.00
2013-3-28,48.1,40.9,34.3,33.6,29.1,25.3,80,64,42,30.14,29.99,13,3,13,0.00
2013-3-29,54.1,45.3,37.1,34.7,28.6,25.1,68,53,37,30.16,30.06,12,2,12,0.00
2013-3-30,58.9,45.3,30.6,35.3,27.4,21.0,90,54,25,30.14,30.03,12,1,12,0.00
2013-3-31,50.2,44.8,38.3,48.1,38.5,24.9,96,79,54,30.05,29.66,8,1,8,0.05
2013-4-1,62.4,47.0,35.8,46.1,35.9,17.0,98,68,40,29.90,29.65,22,4,22,0.01
2013-4-2,45.7,36.5,26.0,21.0,16.9,13.4,67,46,30,30.09,29.90,14,3,16,0.00
2013-4-3,48.7,36.1,25.0,21.6,16.6,10.4,70,47,25,30.30,30.09,20,3,20,0.00
2013-4-4,48.9,36.6,20.6,27.1,16.8,12.5,79,47,25,30.34,30.01,10,2,10,0.00
2013-4-5,63.9,48.5,34.7,35.3,29.1,18.4,96,54,24,30.01,29.73,17,3,17,0.01
2013-4-6,55.1,44.4,31.3,24.2,20.0,16.1,63,39,24,30.24,29.97,9,3,9,0.00
2013-4-7,67.3,52.7,36.7,41.1,34.3,23.8,79,52,35,30.19,29.89,17,6,17,0.00
2013-4-8,79.8,66.7,50.4,51.3,46.1,40.6,73,49,31,29.99,29.84,12,3,12,0.00
2013-4-9,83.5,72.1,60.3,57.5,52.7,49.4,68,52,36,29.98,29.81,12,3,12,0.00
2013-4-10,89.3,77.5,63.6,59.2,55.2,51.6,67,47,33,29.87,29.67,9,2,15,0.00
2013-4-11,85.5,68.0,53.3,61.3,56.7,51.0,94,70,39,29.81,29.66,16,4,17,0.00
2013-4-12,65.5,53.7,48.7,60.0,52.2,48.0,98,95,81,29.74,29.51,14,4,14,0.39
2013-4-13,65.7,53.3,40.7,48.0,40.6,36.7,96,66,36,29.88,29.70,12,2,12,0.00
2013-4-14,65.0,53.7,38.5,42.5,37.0,33.9,86,56,33,30.06,29.88,10,2,10,0.00
2013-4-15,60.6,55.3,51.1,49.3,46.2,39.2,89,72,58,30.21,30.05,12,3,12,0.01
2013-4-16,73.1,61.5,51.8,58.7,53.5,47.3,89,76,58,30.23,30.02,20,4,20,0.00
2013-4-17,70.7,64.4,57.6,61.4,57.5,53.7,97,79,63,30.15,30.03,9,2,9,0.00
2013-4-18,72.5,61.6,55.7,64.3,57.1,52.0,98,86,68,30.14,29.92,13,4,13,0.20
2013-4-19,75.3,64.4,50.4,66.2,59.9,48.1,96,86,68,29.92,29.50,17,5,17,1.48
2013-4-20,58.4,50.1,42.7,48.4,33.3,26.4,94,54,34,30.26,29.68,14,4,14,0.05
2013-4-21,53.9,44.2,33.4,31.5,25.4,20.7,69,49,30,30.51,30.26,9,2,9,0.00
2013-4-22,55.5,44.8,32.5,37.3,33.6,31.1,96,67,45,30.50,30.33,15,4,15,0.00
2013-4-23,59.7,49.0,41.6,45.5,39.8,33.6,89,72,51,30.35,30.05,8,2,8,0.00
2013-4-24,75.6,59.3,42.0,58.9,50.0,40.9,98,75,45,30.05,29.69,17,4,17,0.01
2013-4-25,62.4,52.0,41.2,49.0,34.7,28.6,75,53,31,30.23,29.90,17,3,17,0.00
2013-4-26,63.4,51.9,39.1,40.1,35.1,29.9,88,56,31,30.37,30.22,8,1,8,0.00
2013-4-27,70.8,54.7,35.3,41.0,36.1,31.6,95,55,27,30.35,30.21,12,2,12,0.00
2013-4-28,67.3,55.2,40.0,46.7,39.3,29.1,93,58,34,30.21,30.05,12,3,12,0.00
2013-4-29,57.3,54.1,50.1,56.4,51.8,40.0,98,92,57,30.08,29.98,10,2,10,0.30
2013-4-30,60.3,55.3,51.2,56.6,53.3,47.1,99,93,83,30.21,30.02,9,2,9,0.16
2013-5-1,68.8,56.6,41.3,47.1,39.2,29.8,87,57,26,30.34,30.21,12,3,12,0.00
2013-5-2,69.5,54.4,39.2,48.4,44.0,38.4,98,72,35,30.36,30.24,13,2,13,0.00
2013-5-3,66.4,54.0,44.2,46.8,43.3,39.1,96,70,41,30.30,30.22,14,3,14,0.00
2013-5-4,66.8,54.2,40.8,45.6,42.1,38.5,97,67,37,30.26,30.09,12,3,12,0.00
2013-5-5,61.9,51.2,40.9,44.9,41.3,37.9,91,71,45,30.17,30.07,12,3,12,0.00
2013-5-6,61.0,53.2,42.6,56.8,49.9,40.8,96,88,81,30.12,29.99,14,3,14,0.01
2013-5-7,62.4,58.9,56.5,61.2,58.0,55.9,98,97,92,30.01,29.87,15,5,15,1.22
2013-5-8,71.8,60.8,55.0,59.4,55.8,50.8,98,85,49,29.92,29.83,12,2,12,0.19
2013-5-9,74.0,61.5,52.6,62.6,56.1,52.1,98,84,56,29.91,29.83,12,1,12,0.02
2013-5-10,79.6,61.6,50.6,61.9,56.9,50.1,99,87,46,29.93,29.77,9,1,9,0.77
2013-5-11,77.5,65.3,60.1,66.3,62.5,57.9,98,91,60,29.82,29.62,14,2,14,0.36
2013-5-12,62.2,56.8,46.0,58.2,40.0,28.5,92,56,32,29.94,29.65,16,4,16,0.00
2013-5-13,57.9,48.2,37.7,33.9,29.9,23.8,84,52,28,30.09,29.93,16,3,16,0.00
2013-5-14,61.8,49.4,31.2,42.9,33.8,27.9,93,58,32,30.13,29.97,12,1,12,0.00
2013-5-15,82.1,64.7,51.8,65.6,54.4,41.4,92,71,52,29.99,29.60,18,3,18,0.01
2013-5-16,80.0,71.7,64.1,65.2,60.7,55.9,85,69,57,29.83,29.66,11,2,11,0.00
2013-5-17,82.5,69.7,55.1,58.2,50.9,40.1,96,56,28,30.06,29.83,8,1,8,0.00
2013-5-18,67.6,61.3,57.4,58.1,54.3,47.6,97,79,58,30.15,30.06,12,3,12,0.03
2013-5-19,67.7,62.4,57.4,64.9,61.0,56.6,99,95,89,30.13,30.02,7,2,7,0.02
2013-5-20,80.5,70.6,63.7,69.2,66.0,63.1,99,86,65,30.04,29.89,9,2,9,0.00
2013-5-21,85.5,73.6,64.7,72.9,68.2,64.0,99,84,63,29.91,29.78,9,2,9,0.00
2013-5-22,89.3,76.4,64.8,73.6,68.4,63.1,99,79,49,29.85,29.73,12,3,12,0.12
2013-5-23,80.5,69.0,62.8,69.2,65.0,61.0,98,88,62,29.80,29.66,12,3,12,1.15
2013-5-24,63.0,55.2,46.3,62.4,48.7,34.3,99,80,59,30.06,29.64,21,4,21,0.07
2013-5-25,64.1,53.3,41.7,42.0,36.1,31.9,78,54,35,30.08,29.98,15,5,15,0.00
2013-5-26,70.6,57.8,45.4,43.7,38.7,33.8,71,51,31,30.13,30.03,14,3,14,0.00
2013-5-27,72.4,59.8,42.3,50.6,43.5,38.2,91,58,31,30.20,30.09,9,1,9,0.00
2013-5-28,77.2,65.1,55.4,65.9,59.0,50.1,96,81,63,30.12,29.98,6,1,6,0.08
2013-5-29,88.8,76.6,63.8,70.1,65.4,62.8,98,71,46,30.03,29.97,12,3,12,0.01
2013-5-30,92.8,80.4,67.5,70.2,66.2,63.1,89,65,39,30.08,30.00,8,2,8,0.00
2013-5-31,90.9,79.1,65.6,69.1,65.0,60.8,95,65,39,30.05,29.92,12,3,12,0.00
2013-6-1,91.3,80.1,66.1,70.7,66.6,62.9,91,65,46,29.94,29.82,10,3,10,0.00
2013-6-2,83.3,75.6,68.0,72.5,67.4,63.2,96,77,63,29.82,29.74,12,4,12,0.20
2013-6-3,81.8,71.5,64.7,69.9,65.0,56.2,98,81,58,29.85,29.73,8,1,8,0.25
2013-6-4,75.1,64.5,54.8,56.2,48.9,42.6,90,59,38,30.05,29.86,9,2,9,0.00
2013-6-5,78.5,65.4,50.0,56.1,52.6,48.9,98,67,40,30.11,29.97,12,2,12,0.00
2013-6-6,71.5,64.3,58.6,63.6,58.7,53.2,98,82,65,30.00,29.79,10,2,10,0.89
2013-6-7,70.2,66.6,62.4,69.3,65.9,61.8,99,98,96,29.80,29.51,10,2,10,1.18
2013-6-8,78.9,69.6,63.7,65.0,62.7,59.8,98,80,56,30.01,29.61,8,1,8,0.00
2013-6-9,80.5,70.5,58.7,68.0,62.9,57.3,97,78,57,30.11,30.01,10,2,10,0.00
2013-6-10,78.8,70.8,66.9,74.8,69.0,64.2,98,94,81,30.03,29.70,12,2,12,1.88
2013-6-11,82.3,72.7,65.0,69.0,66.1,63.5,99,81,61,29.75,29.68,12,3,12,0.06
2013-6-12,86.8,75.9,64.2,72.3,67.1,62.3,95,76,54,29.77,29.69,8,1,8,0.00
2013-6-13,86.1,73.1,67.2,70.8,66.7,57.3,97,81,57,29.73,29.36,20,4,20,0.19
2013-6-14,78.5,66.8,57.3,58.4,55.5,50.8,92,69,42,29.89,29.49,13,3,13,0.01
2013-6-15,81.8,69.9,55.9,62.1,57.1,50.9,95,67,39,29.99,29.89,12,2,12,0.00
2013-6-16,82.9,71.4,58.3,68.2,62.6,55.7,95,75,52,29.94,29.79,13,2,13,0.00
2013-6-17,88.0,77.0,67.9,71.1,66.0,61.8,86,70,51,29.86,29.78,10,2,10,0.00
2013-6-18,75.9,69.7,64.6,72.5,67.6,63.4,98,93,85,29.83,29.70,8,1,8,0.49
2013-6-19,78.4,67.6,60.0,64.0,60.9,56.5,98,81,52,30.08,29.80,6,1,6,0.25
2013-6-20,79.8,67.9,56.3,66.3,59.7,55.6,99,77,51,30.18,30.08,10,2,10,0.00
2013-6-21,81.5,69.3,54.4,60.3,54.4,44.1,95,63,33,30.22,30.15,8,2,8,0.00
2013-6-22,86.8,73.2,57.5,69.7,63.6,56.6,98,74,47,30.17,30.04,10,2,10,0.00
2013-6-23,85.3,73.9,63.4,73.2,68.3,62.4,98,84,63,30.11,29.98,6,1,6,0.09
2013-6-24,92.7,77.8,68.4,74.5,69.1,64.4,97,77,45,30.03,29.93,16,2,17,0.00
2013-6-25,91.7,79.4,66.8,73.9,69.6,63.9,97,74,48,29.95,29.79,13,2,13,0.14
2013-6-26,90.1,74.8,64.8,75.0,69.3,63.6,98,85,56,29.83,29.73,9,2,10,0.26
2013-6-27,84.0,75.0,67.1,75.1,71.1,66.5,99,88,72,29.75,29.51,12,2,12,0.05
2013-6-28,87.7,76.7,68.4,74.3,69.5,64.9,95,80,60,29.54,29.38,13,3,13,0.06
2013-6-29,87.5,76.9,63.9,70.1,64.8,60.1,97,69,42,29.61,29.43,8,2,8,0.00
2013-6-30,85.9,76.0,67.6,74.7,71.4,66.5,98,86,66,29.77,29.61,12,2,12,0.00
2013-7-1,82.5,76.1,70.9,74.4,71.4,68.7,93,86,68,29.90,29.76,14,3,14,0.02
2013-7-2,83.5,75.6,72.6,73.8,72.2,70.7,96,89,70,30.09,29.90,12,4,12,0.04
2013-7-3,86.7,75.4,71.0,76.8,72.8,69.9,98,92,67,30.14,30.08,9,2,9,0.42
2013-7-4,89.2,79.1,71.7,75.8,72.5,70.0,98,81,61,30.17,30.07,13,3,13,0.00
2013-7-5,89.8,80.7,71.8,75.4,72.4,70.5,97,77,55,30.13,30.03,14,4,14,0.00
2013-7-6,92.9,82.6,70.9,75.9,72.4,69.7,98,73,51,30.09,29.96,10,3,10,0.00
2013-7-7,91.7,78.7,69.2,75.3,71.2,68.2,97,80,55,30.02,29.90,13,3,13,0.10
2013-7-8,86.0,76.8,68.8,72.8,69.2,66.3,98,79,54,30.01,29.94,12,2,12,0.02
2013-7-9,82.6,76.5,70.2,74.4,71.2,67.7,93,84,72,30.01,29.91,6,1,6,0.00
2013-7-10,87.5,78.8,73.5,76.9,73.4,69.5,96,85,61,29.93,29.77,12,2,12,0.01
2013-7-11,79.7,74.3,71.8,75.5,68.9,65.7,92,83,72,29.83,29.75,9,2,9,0.10
2013-7-12,72.6,68.8,65.5,69.4,66.3,64.0,96,92,78,29.94,29.82,10,1,10,0.54
2013-7-13,84.3,76.2,68.4,75.2,71.0,67.7,98,85,67,30.20,29.95,6,2,6,0.74
2013-7-14,89.8,80.0,70.9,76.0,73.2,70.0,99,82,56,30.25,30.18,8,2,8,0.00
2013-7-15,93.6,81.8,69.0,75.7,72.7,68.1,98,76,52,30.21,30.09,7,1,7,0.00
2013-7-16,92.8,83.7,74.9,76.0,71.9,68.3,89,70,47,30.15,30.08,7,1,7,0.00
2013-7-17,94.3,82.8,71.8,75.0,71.3,66.2,96,71,42,30.12,30.00,8,1,8,0.00
2013-7-18,97.3,85.5,73.3,79.2,75.4,70.7,92,74,49,30.03,29.90,7,1,7,0.00
2013-7-19,96.5,85.3,76.0,79.3,75.3,67.7,94,74,52,29.92,29.76,13,2,13,0.00
2013-7-20,92.8,79.6,70.7,75.8,71.0,68.5,95,76,54,29.80,29.69,6,1,14,0.08
2013-7-21,90.4,77.9,68.2,74.3,71.2,67.3,98,81,54,29.85,29.78,5,0,9,0.00
2013-7-22,89.3,78.1,70.4,75.7,72.8,69.7,99,85,59,29.84,29.67,5,1,12,0.33
2013-7-23,87.4,76.4,69.7,75.2,70.6,67.0,99,84,58,29.68,29.55,10,1,10,0.07
2013-7-24,82.6,74.5,67.1,69.2,65.0,57.0,91,73,55,29.84,29.59,2,0,6,0.00
2013-7-25,77.7,66.1,57.7,62.2,57.2,52.4,94,74,54,29.96,29.84,3,0,8,0.00
2013-7-26,83.9,70.7,59.5,64.5,60.4,57.1,98,73,44,30.01,29.94,3,0,9,0.00
2013-7-27,84.6,70.4,60.2,72.8,66.0,59.1,99,87,61,29.97,29.83,6,1,13,0.49
2013-7-28,83.0,73.3,67.7,72.5,68.4,62.6,98,86,53,29.90,29.81,3,0,9,0.22
2013-7-29,80.8,72.9,58.3,61.5,58.2,54.6,98,62,43,30.07,29.95,3,0,7,0.02
2013-7-30,82.7,70.0,58.1,62.5,58.6,54.8,94,70,45,30.14,30.06,3,0,7,0.00
2013-7-31,80.2,70.9,60.5,69.6,64.4,59.6,99,81,61,30.08,29.93,3,0,9,0.00
2013-8-1,83.4,72.5,66.3,72.2,68.6,65.4,98,88,63,29.93,29.72,3,1,8,0.07
2013-8-2,84.4,74.5,62.8,68.0,65.0,61.6,97,74,51,29.87,29.76,5,1,12,0.00
2013-8-3,72.4,67.5,63.8,67.0,64.3,61.5,97,90,81,29.89,29.83,2,0,7,0.20
2013-8-4,80.8,69.6,59.2,63.8,58.4,51.6,97,71,41,29.94,29.82,3,1,12,0.01
2013-8-5,80.5,68.4,55.3,60.4,56.2,52.3,90,67,42,30.02,29.93,3,0,7,0.00
2013-8-6,70.9,66.1,62.5,68.2,63.8,59.0,98,92,83,30.00,29.93,2,0,7,0.39
2013-8-7,82.2,72.1,65.6,73.5,69.1,65.0,98,91,73,30.00,29.91,3,1,9,1.23
2013-8-8,84.9,74.3,67.3,75.4,71.3,66.3,99,91,70,30.00,29.89,8,1,22,1.41
2013-8-9,85.8,78.1,73.6,77.0,74.2,71.0,98,88,71,29.89,29.76,5,1,10,0.42
2013-8-10,83.1,74.8,67.3,71.3,67.3,62.1,97,79,52,29.99,29.85,2,0,5,0.00
2013-8-11,85.0,74.1,64.2,72.0,67.3,63.3,97,81,58,30.03,29.91,3,0,7,0.00
2013-8-12,86.6,75.9,66.9,73.1,68.9,65.8,98,81,53,29.95,29.83,2,0,7,0.00
2013-8-13,85.2,75.5,70.1,72.8,69.5,60.7,98,83,59,29.83,29.65,3,0,8,0.06
2013-8-14,73.8,65.2,55.3,60.9,52.4,46.7,86,64,49,30.01,29.73,5,1,13,0.00
2013-8-15,77.4,64.7,54.8,56.9,52.3,48.3,93,67,39,30.11,30.01,3,0,6,0.00
2013-8-16,78.6,64.8,50.5,61.4,55.2,50.0,99,75,44,30.12,30.06,3,0,8,0.00
2013-8-17,79.4,66.8,52.7,61.0,57.3,52.0,99,75,45,30.19,30.12,5,0,10,0.00
2013-8-18,73.2,67.2,63.2,63.2,61.3,58.9,96,82,63,30.16,30.08,3,0,7,0.02
2013-8-19,76.4,67.3,58.9,68.0,63.2,57.8,98,87,71,30.10,29.98,5,0,8,0.00
2013-8-20,88.2,73.8,59.6,71.5,65.0,59.0,99,77,46,30.08,30.01,3,0,9,0.00
2013-8-21,87.9,76.1,62.8,75.0,69.2,62.2,99,81,57,30.11,29.97,3,1,9,0.00
2013-8-22,86.3,77.1,68.2,71.6,69.4,63.6,97,78,57,30.00,29.84,2,0,10,0.00
2013-8-23,73.8,69.0,58.3,69.1,64.4,57.5,98,86,72,30.04,29.85,2,0,5,0.03
2013-8-24,80.8,67.9,57.2,63.5,58.0,51.1,99,74,39,30.26,30.04,5,0,7,0.01
2013-8-25,81.9,67.6,54.3,64.5,58.4,53.8,99,75,46,30.33,30.18,3,0,8,0.00
2013-8-26,86.6,72.5,59.0,67.1,61.6,55.2,90,70,48,30.20,29.91,3,1,9,0.00
2013-8-27,89.0,78.3,69.9,73.3,69.5,64.5,93,75,58,29.91,29.78,5,0,10,0.00
2013-8-28,76.9,73.3,68.9,73.8,70.7,68.0,98,92,86,29.82,29.73,2,0,8,0.10
2013-8-29,83.0,74.2,68.5,71.7,69.5,67.0,98,86,64,29.93,29.75,3,0,9,0.01
2013-8-30,86.8,75.9,68.1,73.6,69.4,67.2,98,82,57,29.95,29.79,6,1,12,0.00
2013-8-31,90.3,78.4,67.9,75.2,71.1,66.7,97,79,57,29.81,29.70,5,1,8,0.00
2013-9-1,91.2,78.9,66.9,75.1,71.2,66.0,98,79,53,29.75,29.67,3,0,7,0.00
2013-9-2,90.0,79.2,69.2,74.3,71.2,68.0,97,78,55,29.71,29.62,3,0,8,0.00
2013-9-3,83.6,74.9,64.9,72.1,63.3,54.9,95,69,44,29.87,29.64,3,0,10,0.00
2013-9-4,82.2,67.9,53.6,58.0,54.5,48.5,95,66,35,29.99,29.87,3,0,7,0.00
2013-9-5,82.2,69.0,56.7,64.5,56.8,46.9,93,67,43,30.05,29.93,3,0,12,0.00
2013-9-6,75.3,62.0,50.2,52.4,48.6,44.7,91,64,39,30.18,30.06,5,0,7,0.00
2013-9-7,80.4,64.3,47.7,62.1,55.3,46.9,99,76,46,30.08,29.86,3,0,9,0.00
2013-9-8,85.9,72.5,63.3,68.1,63.8,55.9,95,76,51,29.98,29.80,3,0,7,0.01
2013-9-9,77.8,67.1,56.1,66.5,56.6,47.7,87,69,56,30.12,29.99,5,1,8,0.00
2013-9-10,92.0,78.9,69.3,74.8,71.0,66.6,94,78,53,30.09,29.99,5,1,10,0.00
2013-9-11,93.9,81.2,70.8,77.7,72.7,69.7,98,78,54,30.05,29.91,5,1,10,0.00
2013-9-12,91.2,76.2,67.8,75.8,70.6,66.6,97,84,56,29.92,29.66,3,1,9,0.12
2013-9-13,68.5,66.8,63.8,67.6,65.1,62.5,97,94,91,29.66,29.61,1,0,3,0.00
2013-9-26,64.1,56.2,52.0,54.4,52.7,50.5,96,88,70,30.00,29.95,0,0,6,0.00
2013-9-27,71.6,60.8,51.2,60.9,56.4,50.1,97,86,63,30.12,30.00,2,0,6,0.00
2013-9-28,69.2,61.2,52.6,54.8,53.1,50.7,96,76,57,30.22,30.15,2,0,7,0.00
2013-9-29,73.6,58.1,44.5,59.1,52.3,43.7,99,83,54,30.14,29.99,2,0,8,0.00
2013-9-30,76.5,59.7,46.0,57.2,52.0,45.4,99,79,44,30.02,29.90,2,0,7,0.01
2013-10-1,82.2,65.7,52.2,62.9,57.1,50.4,96,77,46,29.99,29.88,5,0,9,0.00
2013-10-2,85.2,69.6,56.3,64.6,59.8,54.5,95,74,45,29.99,29.91,3,0,10,0.00
2013-10-3,83.9,68.6,56.8,66.9,61.7,56.0,98,81,53,30.04,29.95,2,0,6,0.00
2013-10-4,71.2,61.0,57.4,66.5,59.9,56.8,99,96,85,30.00,29.96,0,0,2,0.00
2013-10-5,87.9,74.2,63.4,69.0,65.8,61.6,97,77,50,30.01,29.91,2,0,6,0.00
2013-10-6,87.0,75.4,63.9,71.4,66.3,63.3,99,76,48,29.94,29.83,7,2,12,0.00
2013-10-7,71.5,63.9,53.4,69.6,60.6,45.2,97,89,71,29.97,29.68,6,1,15,1.02
2013-10-8,66.8,54.0,43.8,50.4,46.1,42.7,97,77,48,30.22,29.97,5,0,10,0.00
2013-10-9,51.8,50.4,49.3,47.6,46.4,44.9,93,86,81,30.22,30.19,0,0,3,0.00
2013-10-10,57.0,55.5,53.6,56.5,54.9,52.8,98,98,97,30.05,29.93,2,0,9,1.57
2013-10-11,61.2,58.4,55.9,60.5,57.8,55.3,99,98,97,29.93,29.87,3,1,12,1.97
2013-10-12,67.0,61.6,57.7,60.6,58.3,54.7,98,89,70,30.10,29.92,5,1,12,0.19
2013-10-13,62.6,57.8,54.9,59.5,55.9,51.9,97,93,82,30.26,30.10,3,1,9,0.13
2013-10-14,69.9,57.9,50.7,55.4,52.2,49.6,97,83,52,30.27,30.15,2,0,6,0.00
2013-10-15,72.0,56.6,45.5,55.6,49.1,44.2,99,79,41,30.17,30.02,2,0,6,0.00
2013-10-16,68.4,61.2,55.8,62.3,57.9,51.6,98,89,77,30.02,29.83,2,0,6,0.01
2013-10-17,74.8,64.2,58.6,65.1,61.2,54.4,99,91,66,29.83,29.63,3,0,16,0.08
2013-10-18,65.8,54.7,43.2,54.0,44.8,41.6,96,71,47,29.93,29.74,3,0,12,0.00
2013-10-19,63.7,51.4,41.2,56.3,47.8,40.4,99,89,57,29.93,29.71,5,1,14,0.13
2013-10-20,62.1,49.2,37.7,47.4,39.5,35.3,95,72,42,30.02,29.78,3,0,12,0.00
2013-10-21,66.1,50.5,34.8,46.2,40.1,34.1,99,73,36,30.08,29.89,6,1,13,0.00
2013-10-22,61.3,50.2,41.5,51.0,44.1,35.2,98,80,58,29.89,29.75,2,0,9,0.00
2013-10-23,54.7,45.9,36.4,39.4,36.6,34.1,93,71,48,29.81,29.59,3,0,8,0.00
2013-10-24,50.7,41.6,34.9,36.0,31.9,27.7,92,70,44,30.05,29.81,6,1,15,0.00
2013-10-25,54.4,41.7,32.9,37.3,31.5,29.1,88,69,42,30.24,30.05,5,1,12,0.00
2013-10-26,55.4,43.1,28.2,32.3,29.6,26.1,93,62,38,30.23,29.86,8,2,15,0.00
2013-10-27,58.9,46.7,35.7,38.7,34.2,31.3,91,64,41,30.08,29.87,7,0,12,0.00
2013-10-28,63.9,44.3,30.8,43.2,36.5,29.8,98,78,39,30.22,30.08,1,0,5,0.00
2013-10-29,63.4,47.1,35.6,44.7,39.8,33.8,97,78,46,30.32,30.22,2,0,6,0.00
2013-10-30,68.7,54.4,41.9,55.8,50.7,40.1,98,88,61,30.25,30.06,2,0,8,0.05
2013-10-31,66.3,59.6,53.2,60.1,56.6,52.4,99,90,77,30.11,29.69,6,1,14,0.03
2013-11-1,74.5,64.4,54.9,63.6,57.8,51.4,97,81,46,29.69,29.48,9,2,20,0.42
2013-11-2,66.9,55.9,45.3,54.6,45.2,38.5,97,69,44,29.79,29.57,5,0,12,0.00
2013-11-3,55.1,45.5,34.4,43.0,32.7,22.8,92,64,31,30.38,29.79,5,1,13,0.00
2013-11-4,46.0,35.6,27.3,28.7,23.1,20.1,87,62,39,30.57,30.39,3,0,8,0.00
2013-11-5,56.5,45.6,32.8,46.8,38.1,26.1,86,75,61,30.55,30.39,3,0,6,0.00
2013-11-6,68.0,55.9,43.5,52.5,49.3,42.3,98,80,56,30.39,29.98,6,1,13,0.00
2013-11-7,58.0,52.4,40.0,54.9,45.9,24.1,94,79,50,29.98,29.80,5,1,12,0.08
2013-11-8,49.6,39.6,31.5,32.5,26.5,23.5,81,60,40,30.23,29.99,6,1,18,0.00
2013-11-9,53.2,40.5,26.0,31.1,27.6,23.2,91,63,38,30.27,29.96,8,1,15,0.00
2013-11-10,59.3,47.3,39.5,36.2,30.3,27.7,67,53,37,30.13,29.88,8,2,17,0.00
2013-11-11,55.1,44.7,31.4,34.0,30.3,27.2,86,58,37,30.21,29.93,6,1,12,0.00
2013-11-12,48.6,37.8,26.1,38.1,23.9,13.6,80,58,41,30.31,29.90,6,1,14,0.00
2013-11-13,33.8,28.5,25.5,20.7,19.1,16.2,74,67,58,30.39,30.30,1,0,7,0.00
2013-11-14,29.6,28.5,26.3,19.8,17.4,15.1,72,63,57,30.30,30.25,1,0,4,0.00
2013-11-25,36.0,26.2,17.4,12.2,9.9,6.7,70,51,29,30.49,30.28,3,1,10,0.00
2013-11-26,46.2,34.0,31.1,45.7,26.3,12.0,99,76,44,30.27,29.53,2,1,10,1.59
2013-11-27,38.6,35.2,27.1,37.5,31.2,16.7,98,86,61,29.91,29.44,3,2,16,0.53
2013-11-28,35.7,29.0,23.9,22.7,16.6,13.3,78,60,40,30.40,29.92,3,1,16,0.00
2013-11-29,39.4,29.9,20.6,22.8,19.5,16.8,89,66,46,30.65,30.39,3,0,11,0.00
2013-11-30,35.2,28.1,19.1,22.6,18.4,15.9,88,68,49,30.65,30.32,1,0,6,0.00
2013-12-1,46.0,34.6,20.4,31.9,26.2,18.4,95,73,53,30.31,29.95,2,0,7,0.00
2013-12-2,46.4,40.5,37.3,36.1,34.4,32.1,86,79,65,29.94,29.81,0,0,2,0.00
2013-12-3,56.4,43.3,35.8,40.4,36.0,33.2,93,77,51,29.92,29.81,2,0,7,0.00
2013-12-4,53.9,44.5,33.9,47.4,40.7,32.6,96,87,74,30.02,29.92,1,0,6,0.00
2013-12-5,67.4,57.1,48.9,60.2,54.2,47.5,99,91,73,30.00,29.84,4,1,13,0.00
2013-12-6,63.5,48.2,35.6,61.8,47.0,34.6,98,96,92,30.08,29.79,3,1,11,1.10
2013-12-7,40.7,34.3,28.6,34.5,29.0,21.1,97,82,65,30.46,30.05,2,1,10,0.11
2013-12-8,29.1,25.9,23.8,28.1,22.3,18.1,97,86,71,30.52,30.25,1,0,6,0.00
2013-12-9,35.4,32.0,29.0,33.6,31.1,28.0,98,96,93,30.23,29.96,1,0,5,0.15
2013-12-10,35.5,29.8,22.2,32.6,27.6,18.2,99,92,74,30.13,29.91,1,0,9,0.10
2013-12-11,36.4,24.9,15.2,21.0,17.7,13.0,93,76,47,30.33,30.13,1,0,6,0.01
2013-12-12,30.9,24.0,18.6,21.4,12.3,6.9,85,61,45,30.35,30.18,2,0,10,0.00
2013-12-13,38.3,28.4,18.2,22.1,15.1,7.7,74,58,41,30.25,30.15,3,0,13,0.01
2013-12-14,36.9,32.4,29.1,33.6,27.5,22.7,98,83,58,30.27,29.66,3,1,11,0.51
2013-12-15,42.2,33.7,29.0,35.7,28.6,21.4,97,82,67,29.85,29.57,3,1,16,0.22
2013-12-16,34.9,30.6,26.8,26.5,21.9,17.6,77,70,61,30.12,29.85,2,0,12,0.00
2013-12-17,34.9,30.7,28.4,30.9,27.0,24.5,95,86,77,30.09,29.88,1,0,6,0.01
2013-12-18,37.3,29.7,24.1,26.8,22.4,19.7,95,75,56,30.14,29.91,2,0,16,0.00
2013-12-19,55.7,37.1,21.3,31.1,25.5,18.4,93,66,39,30.13,30.01,3,1,9,0.00
2013-12-20,54.8,47.7,39.1,40.4,32.4,28.4,66,56,44,30.03,29.92,3,1,11,0.00
2013-12-21,69.9,58.7,48.9,58.4,49.5,39.7,82,72,60,29.93,29.81,5,3,17,0.00
2013-12-22,69.9,63.5,60.1,63.7,60.1,57.7,96,89,79,29.90,29.73,7,3,24,0.10
2013-12-23,61.5,52.0,35.2,59.5,49.0,26.7,99,90,71,30.14,29.82,3,1,20,0.88
2013-12-24,37.5,30.1,20.0,28.1,20.1,8.2,86,67,49,30.38,30.12,3,1,19,0.00
2013-12-25,32.0,22.7,14.9,17.7,12.2,9.3,80,65,44,30.49,30.33,2,0,7,0.00
2013-12-26,43.7,29.6,20.6,25.3,20.9,17.6,91,72,45,30.31,30.15,3,1,14,0.00
2013-12-27,48.9,34.8,21.9,22.9,19.5,17.4,84,56,30,30.34,30.24,3,1,13,0.00
2013-12-28,57.2,42.7,28.5,28.8,24.5,20.9,73,51,31,30.26,30.05,3,1,13,0.00
2013-12-29,44.4,42.2,37.9,43.8,37.4,26.4,98,85,49,30.03,29.47,2,0,11,1.00
2013-12-30,44.0,37.1,27.2,39.1,30.0,19.6,95,76,64,30.10,29.73,2,1,13,0.00
2013-12-31,38.6,30.7,25.0,27.9,19.8,16.1,74,64,49,30.24,30.03,5,1,18,0.00
2014-1-1,44.9,31.4,20.5,29.4,22.7,15.5,94,71,48,30.34,30.08,5,1,12,0.00
2014-1-2,33.5,30.2,24.0,30.9,28.6,22.3,97,94,88,30.07,29.57,2,0,6,0.00